Regional Weather Roundup
Issued by NWS Grand Forks, ND

Home | Current Version | Previous Version | Text Only | Print | Product List | Glossary Off
Versions: 1 2 3 4 5 6 7 8 9 10 11 12 13 14 15 16 17 18 19 20 21 22 23 24 25 26 27 28 29 30 31 32 33 34 35 36 37 38 39 40 41 42 43 44 45 46 47 48 49 50

000
ASUS43 KFGF 280510
RWRFGF
PRAIRIE TO PINES  WEATHER ROUNDUP
NATIONAL WEATHER SERVICE EASTERN NORTH DAKOTA/GRAND FORKS ND
1200 AM CDT THU JUL 28 2016

 **SATELLITE DATA USED TO AUGMENT SKY COVER AT AUTOMATED STATIONS**
 *****  WEATHER ACROSS EASTERN NORTH DAKOTA  *****

CITY           SKY/WX    TMP DP  RH WIND       PRES   REMARKS
GRAND FORKS    CLEAR     63  58  83 N9        30.08F
GRAND FRKS AFB CLOUDY    62  57  84 N9        30.10S
GRAND FRKS NWS   N/A     63 N/A N/A N6          N/A
DEVILS LAKE    CLOUDY    59  56  89 NE6       30.15S
FARGO          CLOUDY    65  59  81 N9        30.05S
WAHPETON ARPT  CLOUDY    63  59  88 NW7       30.05S
$$

 ***** WEATHER ACROSS CENTRAL AND WESTERN NORTH DAKOTA  *****

CITY           SKY/WX    TMP DP  RH WIND       PRES   REMARKS
BISMARCK       CLOUDY    66  62  87 E7        30.13S
MINOT          CLOUDY    67  58  72 N6        30.15R
JAMESTOWN      CLOUDY    61  58  90 NE5       30.11S
MINOT AFB      CLOUDY    65  56  73 E7        30.14S
GARRISON         N/A     63  61  93 E7        30.14F
WILLISTON      CLOUDY    64  60  87 N3        30.16R
DICKINSON      CLOUDY    61  60  97 E5        30.14S
HETTINGER      MOCLDY    61  57  87 CALM      30.17F
$$

 *****  OTHER AIRPORT OBSERVATIONS IN OUR AREA  *****

CITY           SKY/WX    TMP DP  RH WIND       PRES   REMARKS
WALHALLA       NOT AVBL
GRAFTON AIRPOR MOCLDY    64  57  77 N13       30.13S
VALLEY CITY AR FAIR      61  61 100 N6        30.12S
CANDO          NOT AVBL
CAVALIER APRT  MOCLDY    63  55  77 N7        30.14R
GWINNER        FAIR      63  57  82 N8        30.09R
SHEYENNE NWR     N/A     65  57  75 N7        29.95S
ROLLA          FAIR      54  54 100 NW3       30.19S
 ***** THE ABOVE OBSERVATIONS ARE NON NWS ARE NOT QUALITY
       CONTROLLED AND MAY MIS-REPORT RAIN FOR SNOW...
$$

  *****  WEATHER ACROSS NORTHERN MINNESOTA  *****

CITY           SKY/WX    TMP DP  RH WIND       PRES   REMARKS
FLAG ISLAND    NOT AVBL
WARROAD        NOT AVBL
ROSEAU         CLEAR     59  54  82 NE3       30.13R
HALLOCK        CLEAR     61  57  88 N7        30.11S
THF RVR FALLS  MOCLDY    66  58  75 NE10      30.10S
BAUDETTE       PTCLDY    61  54  77 N9        30.11R
WASKISH        CLOUDY    63  57  82 NE5       30.09S
CROOKSTON      PTCLDY    64  61  88 N5        30.08S
STEPHEN NDAWN    N/A     61  57  88 N6          N/A
GREENBUSH NDAW   N/A     59  57  94 NE6         N/A
$$
  *****  WEATHER ACROSS CENTRAL AND WEST MINNESOTA  *****

CITY           SKY/WX    TMP DP  RH WIND       PRES   REMARKS
FOSSTON        CLOUDY    64  61  88 NE6       30.08F
BEMIDJI        CLOUDY    63  61  94 CALM      30.07S
PARK RAPIDS    CLOUDY    66  62  87 CALM      30.07S
ELBOW LAKE     FAIR      64  61  90 NE3       30.04S
WADENA         CLOUDY    63  61  94 CALM      30.05S
DETROIT LAKES  CLOUDY    64  63  94 NE3       30.07S
MOORHEAD       CLOUDY    64  61  88 N8        30.06S
FERGUS FALLS   CLOUDY    64  63  94 CALM      30.06S
MORRIS MN      MOCLDY    63  61  94 N5        30.03S
STAPLES        CLOUDY    64  61  88 CALM      30.05S
$$
  *****  WEATHER ELSEWHERE ACROSS MINNESOTA  *****

CITY           SKY/WX    TMP DP  RH WIND       PRES   REMARKS
DULUTH         PTCLDY    57  55  93 NE3       30.07R
INTRNTL FALLS  CLEAR     63  54  72 NE6       30.09R
ELY            CLEAR     57  57 100 CALM      30.08R
CLOQUET        CLEAR     55  54  94 CALM      30.06R
WHEATON        CLOUDY    66  61  82 NW6       30.07R
BRAINERD       CLOUDY    64  61  90 E3        30.05F
HIBBING        FOG       54  54 100 CALM      30.07R VSB 1/4
ALEXANDRIA     CLOUDY    66  62  87 NE7       30.05F
SAINT CLOUD    CLEAR     63  62  97 N7        30.02F
MINNEAPOLIS    CLOUDY    68  64  87 N13       29.98S
$$

  *****  WEATHER ACROSS SOUTH DAKOTA  *****

CITY           SKY/WX    TMP DP  RH WIND       PRES   REMARKS
SIOUX FALLS    CLOUDY    68  62  81 N6        30.04S
BROOKINGS      PTCLDY    62  59  90 N6          N/A
WATERTOWN      CLOUDY    62  57  83 N7        30.08R
HURON          CLOUDY    68  61  78 NE7       30.06R
SISSETON         N/A     63  59  87 NW9       30.06R
ABERDEEN       PTCLDY    65  59  81 N6        30.08S
MITCHELL       CLOUDY    70  63  78 NE3       30.06R
PIERRE         CLEAR     66  62  87 E3        30.08F
MOBRIDGE       MOCLDY    69  60  73 E9        30.10R
RAPID CITY     CLOUDY    62  57  83 SE3       30.15F
$$

  *****  SOME WEATHER IN NEARBY STATES *****

CITY           SKY/WX    TMP DP  RH WIND       PRES   REMARKS
GLASGOW MT     PTCLDY    62  59  90 VRB7      30.15S
GREAT FALLS MT CLOUDY    64  52  64 NE18G26   30.21S
CHEYENNE WY    CLEAR     64  57  78 SE7       30.30R
SCOTTSBLUFF NE CLOUDY    69  61  75 E21G36    30.15F
OMAHA NE       PTCLDY    76  70  82 E3        29.98S
DES MOINES IA  PTCLDY    75  68  78 CALM      29.95S
DAVENPORT IA   PTCLDY    72  69  90 S3        29.94S
CHICAGO IL     PTCLDY    77  64  64 E5        29.94F
EAU CLAIRE WI  LGT RAIN  66  65  96 NE3       29.96S
LA CROSSE WI   CLOUDY    73  68  84 E9        29.93R
$$

  *****  SOME NATIONAL WEATHER *****

CITY           SKY/WX    TMP DP  RH WIND       PRES   REMARKS
LA GUARDIA NY  PTCLDY    80  72  76 S5        29.90S
RALEIGH NC     PTCLDY    77  72  84 CALM      29.96S
ATLANTA GA     PTCLDY    78  67  68 SW6       30.06R
NEW ORLEANS LA PTCLDY    80  74  81 S3        30.02F
OKLAHOMA CITY  PTCLDY    75  73  93 CALM      29.98S
ALBUQUERQUE NM CLOUDY    81  43  26 SW5       30.19R
SALT LAKE CITY CLEAR     86  33  15 SE8       30.01S
LOS ANGELES CA PTCLDY    71  65  81 SW6       29.90R
BOISE ID       CLEAR     84  46  26 W5        29.95R
SEATTLE WA     CLEAR     73  57  57 N8        30.11R
$$

*** WEATHER ACROSS MANITOBA...SASKATCHEWAN AND ONTARIO ***
                ***ONTARIO***

CITY           SKY/WX    TMP DP  RH WIND       PRES   REMARKS
GERALDTON      CLEAR     57  50  77 N3        30.07R
THUNDER BAY    CLEAR     55  54  94 SW5       30.05R
SIOUX LOOKOUT  CLEAR     57  52  82 N5        30.11S
TORONTO        MOCLDY    77  63  61 CALM      29.92F
BIG TROUT LK   NOT AVBL
PICKLE LAKE    NOT AVBL
DRYDEN         CLEAR     57  52  82 NE8       30.12R
KENORA         CLEAR     57  50  77 N3        30.14R
$$
                *** MANITOBA***

CITY           SKY/WX    TMP DP  RH WIND       PRES   REMARKS
BRANDON        PTCLDY    54  50  87 CALM      30.17R
DAUPHIN        CLEAR     52  50  93 SW5       30.15S
ISLAND LAKE    PTCLDY    59  57  94 SE3       30.12R
PILOT MOUND      N/A     54  50  87 N2          N/A
THE PAS        MOCLDY    64  57  77 S7        30.08S THUNDER
THOMPSON       PTCLDY    63  50  63 S2        30.06S
WINNIPEG       NOT AVBL
LYNN LAKE      CLEAR     61  55  82 MISG      30.05S
CHURCHILL      MOCLDY    57  50  77 S12       30.02S
GILLAM         CLEAR     57  45  62 S6        30.08R
$$
                ***SASKATCHEWAN***

CITY           SKY/WX    TMP DP  RH WIND       PRES   REMARKS
ESTEVAN        MOCLDY    59  55  88 E7        30.17S
KINDERSLEY     PTCLDY    61  55  82 SE8       30.17S
LLOYDMINSTER   MOCLDY    63  59  88 W8        30.13R
PRINCE ALBERT  PTCLDY    64  57  77 SW7       30.11R
REGINA         CLEAR     61  55  82 E7        30.18R
YORKTON        CLEAR     57  52  82 CALM      30.17S
N. BATTLEFORD  CLEAR     66  52  59 S10       30.16R
LA RONGE       MOCLDY    63  59  88 SE9       30.10R
SASKATOON      MOCLDY    64  55  72 S6        30.17R
SWIFT CURRENT  CLEAR     61  54  77 E7        30.18S
$$
NOTE: THESE ARE AUTOMATED STATIONS WITH LIMITED QUALITY CONTROL
      "FAIR" INDICATES FEW OR NO CLOUDS BELOW 12,000 FEET WITH NO
      SIGNIFICANT WEATHER AND/OR OBSTRUCTIONS TO VISIBILITY.
      SKY/WX - SKY CONDITION AND SIGNIFICANT WEATHER.
      TMP - AIR TEMPERATURE.    DP   - DEWPOINT TEMPERATURE.
      RH  - RELATIVE HUMIDITY.  PRES - PRESSURE.
      HX  - HEAT INDEX.         WCI  - WIND CHILL INDEX.
$



USA.gov is the U.S. government's official web portal to all federal, state and local government web resources and services.